FST YBAF-YBAF

Flight info

Callsign FST
Flight time 0h 28m
Altitude 5000
Route YBAF CG YBAF
Aircraft P51/M-V/N

Departure

Time 2026-04-18 10:36
Airport Brisbane Archerfield Airport (YBAF)

Arrival

Time 2026-04-18 11:05
Airport Brisbane Archerfield Airport (YBAF)
Time Latitude Longitude Altitude Speed Heading
2026-04-18 10:27 -27.57633 153.01118 69 ft 0 kts 226°
2026-04-18 10:31 -27.57636 153.01114 69 ft 1 kts 230°
2026-04-18 10:31 -27.57638 153.01111 69 ft 0 kts 233°
2026-04-18 10:32 -27.57639 153.01108 69 ft 3 kts 281°
2026-04-18 10:32 -27.57615 153.01103 69 ft 10 kts
2026-04-18 10:32 -27.57543 153.01119 66 ft 10 kts 13°
2026-04-18 10:32 -27.57519 153.01117 65 ft 5 kts 291°
2026-04-18 10:33 -27.57483 153.00987 59 ft 20 kts 286°
2026-04-18 10:33 -27.57436 153.00821 60 ft 22 kts 287°
2026-04-18 10:33 -27.57378 153.00615 56 ft 29 kts 287°
2026-04-18 10:33 -27.57320 153.00412 56 ft 25 kts 288°
2026-04-18 10:34 -27.57269 153.00232 55 ft 23 kts 284°
2026-04-18 10:34 -27.57218 153.00053 52 ft 24 kts 287°
2026-04-18 10:34 -27.57169 152.99880 48 ft 23 kts 291°
2026-04-18 10:34 -27.57124 152.99724 44 ft 14 kts 291°
2026-04-18 10:35 -27.57072 152.99647 43 ft 10 kts 355°
2026-04-18 10:35 -27.57027 152.99665 43 ft 5 kts 66°
2026-04-18 10:35 -27.57047 152.99767 44 ft 1 kts 108°
2026-04-18 10:35 -27.57047 152.99768 43 ft 0 kts 108°
2026-04-18 10:36 -27.57053 152.99791 45 ft 22 kts 109°
2026-04-18 10:36 -27.57163 153.00166 51 ft 76 kts 115°
2026-04-18 10:36 -27.57367 153.00892 217 ft 116 kts 110°
2026-04-18 10:36 -27.57640 153.01779 1016 ft 124 kts 112°
2026-04-18 10:37 -27.58032 153.02709 1787 ft 145 kts 136°
2026-04-18 10:37 -27.59093 153.03025 2315 ft 179 kts 191°
2026-04-18 10:37 -27.60438 153.02735 2874 ft 213 kts 199°
2026-04-18 10:37 -27.61953 153.02124 3357 ft 243 kts 206°
2026-04-18 10:38 -27.63648 153.02424 3743 ft 272 kts 162°
2026-04-18 10:38 -27.65340 153.03387 4381 ft 276 kts 157°
2026-04-18 10:38 -27.67142 153.04406 4484 ft 297 kts 151°
2026-04-18 10:38 -27.68938 153.05573 4693 ft 310 kts 159°
2026-04-18 10:39 -27.70927 153.06458 5121 ft 304 kts 168°
2026-04-18 10:39 -27.72955 153.07420 4948 ft 326 kts 166°
2026-04-18 10:39 -27.75112 153.07982 5336 ft 306 kts 181°
2026-04-18 10:39 -27.76831 153.09096 5115 ft 309 kts 143°
2026-04-18 10:40 -27.78605 153.09891 5298 ft 272 kts 179°
2026-04-18 10:40 -27.80553 153.09691 5057 ft 275 kts 201°
2026-04-18 10:40 -27.82215 153.08731 5429 ft 245 kts 222°
2026-04-18 10:40 -27.83336 153.07507 5446 ft 264 kts 224°
2026-04-18 10:41 -27.84285 153.06600 5447 ft 269 kts 218°
2026-04-18 10:41 -27.86337 153.05008 5513 ft 278 kts 208°
2026-04-18 10:41 -27.88259 153.04541 5530 ft 287 kts 181°
2026-04-18 10:41 -27.89609 153.04804 5340 ft 300 kts 162°
2026-04-18 10:42 -27.91636 153.06889 5334 ft 311 kts 118°
2026-04-18 10:42 -27.92030 153.08484 4718 ft 330 kts 94°
2026-04-18 10:42 -27.92258 153.11099 4131 ft 334 kts 105°
2026-04-18 10:42 -27.92756 153.14472 3982 ft 322 kts 90°
2026-04-18 10:43 -27.92736 153.16167 3727 ft 335 kts 87°
2026-04-18 10:43 -27.92553 153.18795 3770 ft 335 kts 83°
2026-04-18 10:43 -27.92185 153.21383 3484 ft 335 kts 77°
2026-04-18 10:43 -27.91634 153.23916 3207 ft 330 kts 73°
2026-04-18 10:44 -27.90972 153.26380 2924 ft 329 kts 70°
2026-04-18 10:44 -27.90521 153.28949 2274 ft 338 kts 83°
2026-04-18 10:44 -27.90356 153.31535 2475 ft 321 kts 84°
2026-04-18 10:44 -27.90087 153.34037 2245 ft 323 kts 77°
2026-04-18 10:45 -27.89622 153.36564 1595 ft 332 kts 82°
2026-04-18 10:45 -27.89826 153.39106 1365 ft 310 kts 106°
2026-04-18 10:45 -27.90928 153.41001 613 ft 272 kts 139°
2026-04-18 10:45 -27.92307 153.42162 407 ft 225 kts 153°
2026-04-18 10:46 -27.93632 153.42774 196 ft 193 kts 167°
2026-04-18 10:46 -27.94845 153.42998 154 ft 163 kts 178°
2026-04-18 10:46 -27.95884 153.43017 140 ft 136 kts 180°
2026-04-18 10:46 -27.96743 153.42990 88 ft 109 kts 182°
2026-04-18 10:47 -27.97076 153.42993 67 ft 95 kts 178°
2026-04-18 10:47 -27.97304 153.43003 8 ft 0 kts 179°
2026-04-18 10:47 -27.97892 153.43008 1743 ft 245 kts 179°
2026-04-18 10:47 -27.99987 153.43315 723 ft 325 kts 171°
2026-04-18 10:48 -28.02221 153.43812 739 ft 326 kts 174°
2026-04-18 10:48 -28.04490 153.44146 539 ft 323 kts 174°
2026-04-18 10:48 -28.06613 153.44595 967 ft 305 kts 165°
2026-04-18 10:48 -28.08566 153.45633 1173 ft 321 kts 149°
2026-04-18 10:49 -28.10452 153.47099 1469 ft 323 kts 138°
2026-04-18 10:49 -28.11956 153.48964 1893 ft 332 kts 128°
2026-04-18 10:49 -28.12630 153.51389 1802 ft 334 kts 69°
2026-04-18 10:49 -28.10866 153.51982 1900 ft 309 kts 330°
2026-04-18 10:50 -28.09127 153.50591 2161 ft 309 kts 299°
2026-04-18 10:50 -28.09765 153.48568 2394 ft 331 kts 203°
2026-04-18 10:50 -28.12075 153.48149 2235 ft 348 kts 176°
2026-04-18 10:50 -28.14153 153.48905 2066 ft 354 kts 154°
2026-04-18 10:51 -28.16106 153.50136 2248 ft 350 kts 149°
2026-04-18 10:51 -28.18080 153.51650 2543 ft 346 kts 145°
2026-04-18 10:51 -28.19289 153.53771 2964 ft 321 kts 82°
2026-04-18 10:51 -28.19019 153.56350 2551 ft 341 kts 72°
2026-04-18 10:52 -28.17222 153.56830 2570 ft 312 kts 321°
2026-04-18 10:52 -28.16662 153.54547 2568 ft 320 kts 271°
2026-04-18 10:52 -28.16823 153.51994 2528 ft 326 kts 265°
2026-04-18 10:52 -28.17144 153.49459 2762 ft 320 kts 264°
2026-04-18 10:53 -28.16938 153.47163 3601 ft 280 kts 328°
2026-04-18 10:53 -28.15053 153.46604 4099 ft 279 kts 359°
2026-04-18 10:53 -28.13222 153.46555 4291 ft 268 kts 352°
2026-04-18 10:53 -28.11342 153.46084 4381 ft 262 kts 345°
2026-04-18 10:54 -28.09692 153.45744 4869 ft 231 kts 353°
2026-04-18 10:54 -28.08062 153.45253 5223 ft 263 kts 333°
2026-04-18 10:54 -28.06443 153.43930 5054 ft 304 kts 321°
2026-04-18 10:54 -28.04719 153.42407 5264 ft 321 kts 323°
2026-04-18 10:55 -28.02881 153.40962 5894 ft 313 kts 326°
2026-04-18 10:55 -28.01010 153.39589 5369 ft 345 kts 326°
2026-04-18 10:55 -27.98849 153.38017 4199 ft 377 kts 327°
2026-04-18 10:55 -27.96811 153.36562 4542 ft 353 kts 326°
2026-04-18 10:56 -27.94781 153.35132 4376 ft 350 kts 327°
2026-04-18 10:56 -27.92792 153.33760 4300 ft 328 kts 328°
2026-04-18 10:56 -27.90858 153.32279 4269 ft 340 kts 320°
2026-04-18 10:56 -27.89171 153.30451 4451 ft 318 kts 311°
2026-04-18 10:57 -27.87671 153.28603 4376 ft 318 kts 318°
2026-04-18 10:57 -27.86034 153.26824 4371 ft 333 kts 310°
2026-04-18 10:57 -27.84480 153.24834 4373 ft 328 kts 315°
2026-04-18 10:57 -27.82912 153.23157 4602 ft 297 kts 316°
2026-04-18 10:58 -27.81397 153.21579 4610 ft 296 kts 316°
2026-04-18 10:58 -27.79862 153.20003 4556 ft 298 kts 317°
2026-04-18 10:58 -27.78309 153.18428 4593 ft 303 kts 317°
2026-04-18 10:58 -27.76715 153.17012 4653 ft 296 kts 321°
2026-04-18 10:59 -27.75065 153.15602 4657 ft 301 kts 323°
2026-04-18 10:59 -27.73386 153.14174 4565 ft 295 kts 316°
2026-04-18 10:59 -27.72309 153.12147 4236 ft 303 kts 288°
2026-04-18 10:59 -27.71561 153.09918 4219 ft 299 kts 293°
2026-04-18 11:00 -27.70721 153.07791 4439 ft 295 kts 294°
2026-04-18 11:00 -27.69803 153.05728 4479 ft 297 kts 298°
2026-04-18 11:00 -27.68768 153.03727 4499 ft 292 kts 301°
2026-04-18 11:00 -27.67688 153.01747 4478 ft 300 kts 302°
2026-04-18 11:01 -27.66335 152.99976 4224 ft 302 kts 327°
2026-04-18 11:01 -27.64392 152.99191 3239 ft 291 kts 348°
2026-04-18 11:01 -27.62565 152.99826 2300 ft 281 kts 27°
2026-04-18 11:02 -27.59111 153.00713 2012 ft 230 kts 11°
2026-04-18 11:02 -27.57458 153.01065 1991 ft 253 kts
2026-04-18 11:02 -27.55700 153.01374 2024 ft 264 kts
2026-04-18 11:02 -27.54208 153.00331 1939 ft 293 kts 301°
2026-04-18 11:03 -27.53198 152.98305 1515 ft 287 kts 294°
2026-04-18 11:03 -27.53286 152.96609 1215 ft 185 kts 219°
2026-04-18 11:03 -27.54326 152.96216 963 ft 143 kts 192°
2026-04-18 11:03 -27.55255 152.95994 690 ft 137 kts 184°
2026-04-18 11:04 -27.56093 152.96341 695 ft 134 kts 126°
2026-04-18 11:04 -27.56395 152.97361 437 ft 138 kts 103°
2026-04-18 11:04 -27.56662 152.98400 248 ft 134 kts 107°
2026-04-18 11:04 -27.56934 152.99354 97 ft 110 kts 109°
2026-04-18 11:05 -27.57118 153.00040 51 ft 48 kts 95°
2026-04-18 11:05 -27.57164 153.00171 53 ft 36 kts 146°
2026-04-18 11:05 -27.57196 153.00193 52 ft 3 kts 96°
2026-04-18 11:05 -27.57188 153.00240 54 ft 10 kts 100°
2026-04-18 11:06 -27.57225 153.00371 58 ft 22 kts 105°
2026-04-18 11:06 -27.57275 153.00540 58 ft 29 kts 116°
2026-04-18 11:06 -27.57336 153.00754 62 ft 31 kts 114°
2026-04-18 11:06 -27.57398 153.00974 65 ft 25 kts 99°
2026-04-18 11:07 -27.57436 153.01082 67 ft 6 kts 165°
2026-04-18 11:07 -27.57484 153.01071 66 ft 9 kts 198°
2026-04-18 11:07 -27.57515 153.01092 68 ft 10 kts 108°
2026-04-18 11:07 -27.57541 153.01120 69 ft 9 kts 185°
2026-04-18 11:08 -27.57607 153.01126 71 ft 4 kts 182°
2026-04-18 11:08 -27.57628 153.01122 70 ft 0 kts 220°